Location: Quebec
(46.8000°N, 71.2500°W)
Time: 08:16:13
(UTC-05:00)

Envisat - Pass Details

Date: 07 October 2017
Orbit: 764 x 766 km, 98.2° (Epoch: 13 December)

Event Time Altitude Azimuth Distance (km) Brightness Sun altitude
Exits shadow 21:18:27 29° 238° (WSW) 1,371 4.5 -31.7°
Maximum altitude 21:19:37 33° 265° (W) 1,279 4.5 -31.9°
Drops below altitude 10° 21:24:12 10° 328° (NNW) 2,315 6.2 -32.6°
Sets 21:26:45 0° 339° (NNW) 3,246 6.9 -32.9°
